Location: Newark
(40.4333°N, 3.7000°W)
Time: 04:47:54
(UTC+00:00)

N. Korean satellite - Visible Passes

Search period start: 20 March 2019 00:00
Search period end: 30 March 2019 00:00
Orbit: 455 x 510 km, 97.2° (Epoch: 18 March)

Date Brightness Start Highest point End Pass type
(mag) Time Alt. Az. Time Alt. Az. Time Alt. Az.
20 Mar 9.8 05:32:51 10° NE 05:35:08 16° E 05:37:26 10° SE visible
24 Mar 10.0 05:27:17 10° ENE 05:29:15 14° E 05:31:13 10° SE visible
28 Mar 10.2 05:21:47 10° ENE 05:23:18 12° E 05:24:50 10° ESE visible
